UAE12FR LKPR-OMDB

Flight info

Callsign UAE12FR
Flight time 4h 46m
Altitude 33000
Route VOZ DCT PISAM/N0475F370 DCT SASAL DCT VEBAL DCT GORAV DCT AKIKA DCT MAVAR DCT BITLA DCT SIGFO DCT NEVRA DCT AKINA DCT VANZA/N0473F390 DCT LAKTO L560 SILKA M872 BDB Y214 RAPMA DCT KUVSO DCT KATIT DCT PEKEM M628 RIGIL G783 ELUDA/N0489F350 G783 ASPED Q308 KIPOK Q568 IMPED
Aircraft B77L/H-SDE1E2E3FGHIJ2J3J4J5M1RWXY/LB1D1

Departure

Time 2026-04-23 14:59
Airport Václav Havel Airport Prague (LKPR)

Arrival

Time 2026-04-23 19:45
Airport Dubai International Airport (OMDB)
Time Latitude Longitude Altitude Speed Heading
2026-04-23 14:00 50.10786 14.26586 1185 ft 0 kts 34°
2026-04-23 14:39 50.10778 14.26578 1186 ft 2 kts 33°
2026-04-23 14:39 50.10764 14.26564 1183 ft 2 kts 31°
2026-04-23 14:39 50.10750 14.26551 1184 ft 2 kts 25°
2026-04-23 14:39 50.10735 14.26541 1186 ft 2 kts 357°
2026-04-23 14:40 50.10722 14.26550 1186 ft 1 kts 307°
2026-04-23 14:40 50.10721 14.26551 1186 ft 0 kts 306°
2026-04-23 14:42 50.10723 14.26547 1185 ft 2 kts 306°
2026-04-23 14:42 50.10735 14.26522 1180 ft 0 kts 306°
2026-04-23 14:48 50.10736 14.26519 1180 ft 1 kts 306°
2026-04-23 14:48 50.10745 14.26501 1181 ft 3 kts 309°
2026-04-23 14:49 50.10796 14.26408 1183 ft 16 kts 306°
2026-04-23 14:49 50.10829 14.26330 1180 ft 0 kts 298°
2026-04-23 14:49 50.10830 14.26300 1181 ft 5 kts 259°
2026-04-23 14:49 50.10830 14.26197 1183 ft 13 kts 289°
2026-04-23 14:50 50.10863 14.26126 1184 ft 8 kts 307°
2026-04-23 14:50 50.10864 14.26087 1181 ft 5 kts 254°
2026-04-23 14:50 50.10821 14.26014 1185 ft 13 kts 214°
2026-04-23 14:50 50.10709 14.25899 1177 ft 25 kts 213°
2026-04-23 14:51 50.10599 14.25788 1180 ft 2 kts 202°
2026-04-23 14:51 50.10581 14.25792 1185 ft 3 kts 163°
2026-04-23 14:51 50.10565 14.25827 1179 ft 6 kts 120°
2026-04-23 14:51 50.10526 14.25923 1180 ft 15 kts 124°
2026-04-23 14:52 50.10448 14.26084 1179 ft 23 kts 127°
2026-04-23 14:52 50.10345 14.26295 1176 ft 24 kts 127°
2026-04-23 14:52 50.10239 14.26516 1180 ft 29 kts 127°
2026-04-23 14:52 50.10124 14.26754 1180 ft 26 kts 127°
2026-04-23 14:53 50.10007 14.26996 1182 ft 30 kts 126°
2026-04-23 14:53 50.09879 14.27260 1180 ft 30 kts 128°
2026-04-23 14:53 50.09753 14.27465 1180 ft 18 kts 135°
2026-04-23 14:53 50.09693 14.27557 1184 ft 11 kts 136°
2026-04-23 14:54 50.09644 14.27630 1180 ft 9 kts 135°
2026-04-23 14:54 50.09603 14.27694 1184 ft 8 kts 135°
2026-04-23 14:54 50.09567 14.27751 1176 ft 7 kts 135°
2026-04-23 14:54 50.09534 14.27801 1180 ft 6 kts 135°
2026-04-23 14:55 50.09503 14.27851 1182 ft 6 kts 135°
2026-04-23 14:55 50.09471 14.27899 1182 ft 6 kts 135°
2026-04-23 14:55 50.09432 14.27960 1184 ft 11 kts 135°
2026-04-23 14:55 50.09365 14.28062 1181 ft 15 kts 135°
2026-04-23 14:56 50.09299 14.28164 1180 ft 9 kts 135°
2026-04-23 14:56 50.09254 14.28232 1180 ft 9 kts 135°
2026-04-23 14:56 50.09213 14.28283 1180 ft 5 kts 158°
2026-04-23 14:56 50.09185 14.28286 1179 ft 4 kts 185°
2026-04-23 14:57 50.09156 14.28271 1180 ft 5 kts 206°
2026-04-23 14:57 50.09149 14.28264 1186 ft 0 kts 210°
2026-04-23 14:57 50.09129 14.28242 1180 ft 10 kts 218°
2026-04-23 14:57 50.09089 14.28149 1181 ft 11 kts 253°
2026-04-23 14:58 50.09107 14.28040 1179 ft 11 kts 300°
2026-04-23 14:58 50.09144 14.27957 1180 ft 0 kts 308°
2026-04-23 14:58 50.09150 14.27945 1179 ft 15 kts 308°
2026-04-23 14:58 50.09383 14.27475 1180 ft 92 kts 307°
2026-04-23 14:59 50.09910 14.26360 1200 ft 161 kts 308°
2026-04-23 14:59 50.10660 14.24890 2100 ft 183 kts 309°
2026-04-23 14:59 50.11540 14.23125 2775 ft 231 kts 307°
2026-04-23 14:59 50.12566 14.20879 3543 ft 275 kts 305°
2026-04-23 15:00 50.13633 14.18523 4179 ft 254 kts 308°
2026-04-23 15:00 50.14663 14.16424 4885 ft 240 kts 309°
2026-04-23 15:00 50.15704 14.14329 5702 ft 247 kts 309°
2026-04-23 15:00 50.16755 14.12167 6132 ft 249 kts 309°
2026-04-23 15:01 50.17587 14.09798 6538 ft 257 kts 287°
2026-04-23 15:01 50.17538 14.06960 7035 ft 273 kts 257°
2026-04-23 15:01 50.16704 14.04222 7486 ft 284 kts 243°
2026-04-23 15:01 50.15528 14.01691 7905 ft 291 kts 235°
2026-04-23 15:02 50.14591 14.00172 8173 ft 299 kts 221°
2026-04-23 15:02 50.11962 13.98579 8785 ft 313 kts 184°
2026-04-23 15:02 50.09800 13.99002 9275 ft 317 kts 158°
2026-04-23 15:02 50.07812 14.00401 9752 ft 320 kts 150°
2026-04-23 15:03 50.05823 14.01993 10206 ft 321 kts 151°
2026-04-23 15:03 50.03777 14.03431 10576 ft 322 kts 155°
2026-04-23 15:03 50.01714 14.04797 10945 ft 322 kts 154°
2026-04-23 15:03 49.99659 14.06211 11348 ft 324 kts 153°
2026-04-23 15:04 49.97596 14.07659 11762 ft 324 kts 153°
2026-04-23 15:04 49.95530 14.09091 12168 ft 326 kts 153°
2026-04-23 15:04 49.93452 14.10532 12610 ft 328 kts 153°
2026-04-23 15:04 49.91368 14.11972 13011 ft 329 kts 153°
2026-04-23 15:05 49.89234 14.13476 13499 ft 354 kts 150°
2026-04-23 15:05 49.87209 14.15644 13978 ft 353 kts 135°
2026-04-23 15:05 49.85406 14.18205 14399 ft 351 kts 131°
2026-04-23 15:05 49.83683 14.20889 14790 ft 351 kts 129°
2026-04-23 15:06 49.81998 14.23629 15164 ft 352 kts 128°
2026-04-23 15:06 49.80433 14.26544 15563 ft 351 kts 121°
2026-04-23 15:06 49.78984 14.29599 15951 ft 353 kts 121°
2026-04-23 15:06 49.77501 14.32644 16366 ft 356 kts 122°
2026-04-23 15:07 49.75961 14.35772 16809 ft 378 kts 122°
2026-04-23 15:07 49.74345 14.39070 17300 ft 387 kts 122°
2026-04-23 15:07 49.72708 14.42390 17863 ft 388 kts 122°
2026-04-23 15:07 49.71073 14.45720 18461 ft 391 kts 122°
2026-04-23 15:08 49.69421 14.49076 18956 ft 393 kts 122°
2026-04-23 15:08 49.67750 14.52437 19462 ft 394 kts 122°
2026-04-23 15:08 49.66148 14.55857 19964 ft 391 kts 116°
2026-04-23 15:09 49.63285 14.62990 21032 ft 393 kts 116°
2026-04-23 15:09 49.61821 14.66553 21578 ft 395 kts 116°
2026-04-23 15:09 49.60353 14.70142 22128 ft 396 kts 115°
2026-04-23 15:09 49.58879 14.73746 22695 ft 398 kts 115°
2026-04-23 15:10 49.57896 14.76139 23069 ft 399 kts 115°
2026-04-23 15:10 49.55921 14.80936 23820 ft 401 kts 115°
2026-04-23 15:10 49.54567 14.84670 24299 ft 397 kts 107°
2026-04-23 15:10 49.53490 14.88573 24811 ft 396 kts 105°
2026-04-23 15:11 49.52477 14.92520 25305 ft 398 kts 104°
2026-04-23 15:11 49.51545 14.96539 25823 ft 396 kts 99°
2026-04-23 15:11 49.51065 14.99246 26163 ft 396 kts 98°
2026-04-23 15:11 49.50338 15.03344 26690 ft 399 kts 99°
2026-04-23 15:12 49.49576 15.07470 27143 ft 403 kts 99°
2026-04-23 15:12 49.48806 15.11643 27405 ft 407 kts 99°
2026-04-23 15:12 49.48035 15.15824 27661 ft 405 kts 99°
2026-04-23 15:12 49.47268 15.19982 27941 ft 404 kts 99°
2026-04-23 15:13 49.46500 15.24131 28215 ft 404 kts 99°
2026-04-23 15:13 49.45728 15.28295 28479 ft 406 kts 99°
2026-04-23 15:13 49.44950 15.32471 28765 ft 407 kts 99°
2026-04-23 15:13 49.44173 15.36628 29451 ft 402 kts 99°
2026-04-23 15:14 49.43400 15.40784 30173 ft 407 kts 99°
2026-04-23 15:14 49.42610 15.45005 30795 ft 414 kts 99°
2026-04-23 15:14 49.41802 15.49295 31418 ft 422 kts 99°
2026-04-23 15:14 49.40980 15.53662 32071 ft 429 kts 100°
2026-04-23 15:15 49.40144 15.58091 32734 ft 435 kts 100°
2026-04-23 15:15 49.39296 15.62576 33386 ft 440 kts 100°
2026-04-23 15:15 49.38437 15.67109 34069 ft 444 kts 100°
2026-04-23 15:15 49.37570 15.71673 34667 ft 445 kts 100°
2026-04-23 15:16 49.36701 15.76234 35254 ft 445 kts 101°
2026-04-23 15:16 49.35832 15.80784 35856 ft 445 kts 101°
2026-04-23 15:16 49.34960 15.85346 36473 ft 446 kts 101°
2026-04-23 15:16 49.34083 15.89916 37139 ft 447 kts 101°
2026-04-23 15:17 49.33201 15.94500 37813 ft 449 kts 101°
2026-04-23 15:17 49.32315 15.99103 38508 ft 451 kts 101°
2026-04-23 15:17 49.31434 16.03653 39121 ft 451 kts 102°
2026-04-23 15:17 49.30543 16.08259 39707 ft 451 kts 102°
2026-04-23 15:18 49.29650 16.12857 40262 ft 450 kts 102°
2026-04-23 15:18 49.28752 16.17472 40732 ft 453 kts 102°
2026-04-23 15:18 49.27844 16.22132 40935 ft 461 kts 102°
2026-04-23 15:18 49.26912 16.26890 41040 ft 472 kts 103°
2026-04-23 15:19 49.25960 16.31743 41074 ft 478 kts 103°
2026-04-23 15:19 49.24102 16.41177 41072 ft 471 kts 103°
2026-04-23 15:20 49.22232 16.50638 41063 ft 463 kts 103°
2026-04-23 15:20 49.21288 16.55407 41107 ft 475 kts 103°
2026-04-23 15:20 49.20311 16.60312 41114 ft 488 kts 103°
2026-04-23 15:20 49.19304 16.65347 41117 ft 502 kts 103°
2026-04-23 15:21 49.18285 16.70440 41107 ft 512 kts 103°
2026-04-23 15:21 49.16185 16.80898 41065 ft 515 kts 103°
2026-04-23 15:22 49.14067 16.91396 41068 ft 515 kts 103°
2026-04-23 15:22 49.11957 17.01786 41068 ft 515 kts 104°
2026-04-23 15:23 49.09822 17.12256 41058 ft 516 kts 104°
2026-04-23 15:23 49.07676 17.22719 41053 ft 516 kts 104°
2026-04-23 15:24 49.05519 17.33176 41053 ft 517 kts 104°
2026-04-23 15:24 49.03352 17.43632 41048 ft 517 kts 104°
2026-04-23 15:25 49.01174 17.54083 41055 ft 518 kts 104°
2026-04-23 15:25 48.98998 17.64471 41053 ft 518 kts 104°
2026-04-23 15:26 48.96797 17.74923 41046 ft 518 kts 104°
2026-04-23 15:26 48.94587 17.85356 40897 ft 516 kts 104°
2026-04-23 15:27 48.92389 17.95709 41025 ft 515 kts 104°
2026-04-23 15:27 48.90176 18.06045 41373 ft 513 kts 104°
2026-04-23 15:27 48.89070 18.11207 41701 ft 514 kts 104°
2026-04-23 15:28 48.87957 18.16377 41903 ft 515 kts 104°
2026-04-23 15:28 48.85731 18.26682 41988 ft 518 kts 104°
2026-04-23 15:29 48.83475 18.37076 42018 ft 518 kts 105°
2026-04-23 15:29 48.81208 18.47466 42023 ft 519 kts 105°
2026-04-23 15:30 48.78928 18.57865 42014 ft 519 kts 105°
2026-04-23 15:30 48.76640 18.68253 42017 ft 519 kts 105°
2026-04-23 15:31 48.74340 18.78637 42015 ft 520 kts 105°
2026-04-23 15:31 48.72026 18.89033 42006 ft 520 kts 105°
2026-04-23 15:32 48.69719 18.99349 42000 ft 520 kts 105°
2026-04-23 15:32 48.67388 19.09726 42004 ft 521 kts 105°
2026-04-23 15:33 48.65044 19.20097 41994 ft 521 kts 105°
2026-04-23 15:33 48.62690 19.30470 41980 ft 521 kts 105°
2026-04-23 15:34 48.60214 19.40789 41981 ft 523 kts 108°
2026-04-23 15:34 48.56893 19.50638 41979 ft 527 kts 114°
2026-04-23 15:35 48.53460 19.60334 41969 ft 528 kts 115°
2026-04-23 15:35 48.49982 19.70100 41954 ft 528 kts 115°
2026-04-23 15:36 48.46495 19.79850 41962 ft 529 kts 115°
2026-04-23 15:36 48.42993 19.89604 41941 ft 529 kts 115°
2026-04-23 15:37 48.39483 19.99348 41948 ft 530 kts 115°
2026-04-23 15:37 48.36553 20.07451 41937 ft 530 kts 115°
2026-04-23 15:38 48.32425 20.18828 41938 ft 531 kts 115°
2026-04-23 15:38 48.28881 20.28559 41938 ft 531 kts 115°
2026-04-23 15:39 48.25327 20.38277 41943 ft 531 kts 115°
2026-04-23 15:39 48.21761 20.47995 41934 ft 532 kts 115°
2026-04-23 15:40 48.18185 20.57704 41936 ft 532 kts 115°
2026-04-23 15:40 48.14600 20.67401 41937 ft 532 kts 115°
2026-04-23 15:41 48.11024 20.77033 41934 ft 533 kts 115°
2026-04-23 15:41 48.07420 20.86714 41931 ft 533 kts 116°
2026-04-23 15:42 48.03803 20.96392 41929 ft 533 kts 116°
2026-04-23 15:42 48.00176 21.06059 41931 ft 533 kts 116°
2026-04-23 15:43 47.96536 21.15725 41935 ft 534 kts 116°
2026-04-23 15:43 47.91664 21.28609 41926 ft 534 kts 116°
2026-04-23 15:44 47.80866 21.56945 41919 ft 535 kts 116°
2026-04-23 15:44 47.66039 21.95374 41927 ft 536 kts 116°
2026-04-23 15:45 47.48119 22.41086 41900 ft 536 kts 116°
2026-04-23 15:45 47.44375 22.50553 41921 ft 537 kts 117°
2026-04-23 15:46 47.32951 22.79196 41911 ft 538 kts 117°
2026-04-23 15:46 47.18465 23.15094 41895 ft 539 kts 117°
2026-04-23 15:47 47.03032 23.52824 41895 ft 539 kts 118°
2026-04-23 15:47 46.87453 23.90389 41894 ft 540 kts 118°
2026-04-23 15:48 46.71949 24.27951 41875 ft 540 kts 118°
2026-04-23 15:48 46.56566 24.65575 41886 ft 540 kts 118°
2026-04-23 15:49 46.41157 25.02753 41873 ft 541 kts 118°
2026-04-23 15:49 46.25511 25.39999 41862 ft 541 kts 119°
2026-04-23 15:50 46.09732 25.77059 41859 ft 543 kts 119°
2026-04-23 15:50 45.93762 26.14074 41842 ft 546 kts 119°
2026-04-23 15:51 45.77563 26.51126 41829 ft 547 kts 120°
2026-04-23 15:51 45.61267 26.87910 41825 ft 546 kts 121°
2026-04-23 15:52 45.44867 27.24456 41813 ft 547 kts 121°
2026-04-23 15:52 45.28418 27.60641 41811 ft 548 kts 121°
2026-04-23 15:53 45.11733 27.96879 41811 ft 549 kts 122°
2026-04-23 15:53 44.94887 28.33006 41799 ft 549 kts 122°
2026-04-23 15:54 44.77986 28.68799 41790 ft 548 kts 122°
2026-04-23 15:54 44.75376 28.77608 41838 ft 541 kts 96°
2026-04-23 15:54 44.74983 28.82852 41867 ft 539 kts 91°
2026-04-23 15:55 44.73197 29.23048 41792 ft 545 kts 107°
2026-04-23 15:55 44.66282 29.42071 41808 ft 549 kts 123°
2026-04-23 15:55 44.57872 29.60000 41784 ft 550 kts 123°
2026-04-23 15:56 44.40935 29.95716 41798 ft 551 kts 123°
2026-04-23 15:56 44.23801 30.31405 41815 ft 554 kts 123°
2026-04-23 15:57 44.16850 30.45750 41814 ft 554 kts 123°
2026-04-23 15:57 44.12527 30.54652 41827 ft 555 kts 124°
2026-04-23 15:58 44.08582 30.62810 41822 ft 555 kts 123°
2026-04-23 15:58 44.04445 30.71648 41833 ft 555 kts 123°
2026-04-23 15:59 44.00163 30.80571 41831 ft 555 kts 123°
2026-04-23 15:59 43.95862 30.89474 41832 ft 555 kts 124°
2026-04-23 16:00 43.92292 30.96872 41839 ft 555 kts 124°
2026-04-23 16:00 43.88003 31.05767 41846 ft 555 kts 124°
2026-04-23 16:01 43.83025 31.16108 41844 ft 555 kts 124°
2026-04-23 16:01 43.79440 31.23563 41852 ft 555 kts 124°
2026-04-23 16:02 43.75165 31.32465 41856 ft 556 kts 123°
2026-04-23 16:02 43.70892 31.41374 41855 ft 556 kts 124°
2026-04-23 16:03 43.66570 31.50216 41849 ft 555 kts 131°
2026-04-23 16:03 43.63813 31.53918 41887 ft 552 kts 146°
2026-04-23 16:03 43.60520 31.56576 41926 ft 548 kts 160°
2026-04-23 16:03 43.56880 31.58059 41938 ft 543 kts 174°
2026-04-23 16:04 43.53135 31.58279 41932 ft 537 kts 189°
2026-04-23 16:04 43.49503 31.57240 41931 ft 531 kts 202°
2026-04-23 16:04 43.46105 31.55441 41893 ft 530 kts 206°
2026-04-23 16:04 43.42646 31.53692 41846 ft 533 kts 195°
2026-04-23 16:05 43.26989 31.53462 41899 ft 539 kts 178°
2026-04-23 16:05 42.97109 31.55166 41906 ft 536 kts 180°
2026-04-23 16:06 42.67355 31.56628 41924 ft 534 kts 180°
2026-04-23 16:06 42.37682 31.58232 41950 ft 533 kts 180°
2026-04-23 16:07 42.08088 31.60006 41959 ft 531 kts 180°
2026-04-23 16:07 41.78591 31.61956 41967 ft 530 kts 180°
2026-04-23 16:08 41.49124 31.64054 41971 ft 529 kts 180°
2026-04-23 16:08 41.19730 31.66283 41990 ft 529 kts 180°
2026-04-23 16:09 40.90328 31.68661 41980 ft 529 kts 180°
2026-04-23 16:09 40.61151 31.71146 41962 ft 528 kts 180°
2026-04-23 16:10 40.31822 31.73737 41925 ft 527 kts 180°
2026-04-23 16:10 40.02587 31.76427 41922 ft 526 kts 180°
2026-04-23 16:11 39.73394 31.79262 41936 ft 525 kts 180°
2026-04-23 16:11 39.44246 31.82231 41947 ft 524 kts 180°
2026-04-23 16:12 39.15179 31.85305 41966 ft 524 kts 180°
2026-04-23 16:12 38.86142 31.88519 41958 ft 523 kts 180°
2026-04-23 16:13 38.57102 31.91860 41955 ft 524 kts 180°
2026-04-23 16:13 38.16576 31.96662 41920 ft 524 kts 180°
2026-04-23 16:14 38.09308 31.97543 41915 ft 524 kts 180°
2026-04-23 16:14 38.02046 31.98418 41902 ft 524 kts 180°
2026-04-23 16:15 37.94821 31.99293 41892 ft 524 kts 180°
2026-04-23 16:15 37.87551 32.00178 41883 ft 524 kts 180°
2026-04-23 16:16 37.80286 32.01067 41863 ft 524 kts 180°
2026-04-23 16:16 37.73013 32.01959 41838 ft 525 kts 180°
2026-04-23 16:17 37.65741 32.02851 41854 ft 524 kts 180°
2026-04-23 16:17 37.58534 32.03735 41836 ft 524 kts 180°
2026-04-23 16:18 37.51270 32.04627 41829 ft 524 kts 180°
2026-04-23 16:18 37.23054 32.08127 41845 ft 523 kts 179°
2026-04-23 16:19 36.94123 32.10000 41857 ft 518 kts 184°
2026-04-23 16:19 36.65209 32.10415 41886 ft 520 kts 185°
2026-04-23 16:20 36.36301 32.10797 41911 ft 519 kts 184°
2026-04-23 16:20 36.15323 32.11076 41746 ft 520 kts 184°
2026-04-23 16:20 36.03409 32.11159 41921 ft 518 kts 185°
2026-04-23 16:21 35.67696 32.11645 41916 ft 516 kts 184°
2026-04-23 16:21 35.54843 32.11828 41875 ft 517 kts 184°
2026-04-23 16:22 35.41602 32.09948 41919 ft 503 kts 201°
2026-04-23 16:22 35.38212 32.08868 41916 ft 503 kts 199°
2026-04-23 16:22 35.31442 32.06694 41900 ft 500 kts 199°
2026-04-23 16:23 35.24700 32.04505 41885 ft 502 kts 200°
2026-04-23 16:23 35.17953 32.02307 41862 ft 502 kts 200°
2026-04-23 16:24 35.11207 32.00106 41856 ft 501 kts 200°
2026-04-23 16:24 35.04510 31.97920 41837 ft 502 kts 200°
2026-04-23 16:25 34.97717 31.95703 41834 ft 502 kts 200°
2026-04-23 16:25 34.91021 31.93516 41821 ft 502 kts 200°
2026-04-23 16:26 34.84276 31.91312 41816 ft 502 kts 200°
2026-04-23 16:26 34.77524 31.89106 41806 ft 502 kts 200°
2026-04-23 16:27 34.70781 31.86903 41799 ft 502 kts 200°
2026-04-23 16:27 34.64037 31.84698 41796 ft 502 kts 200°
2026-04-23 16:28 34.57290 31.82493 41794 ft 502 kts 200°
2026-04-23 16:28 34.50538 31.80285 41785 ft 502 kts 200°
2026-04-23 16:29 34.43790 31.78078 41779 ft 502 kts 200°
2026-04-23 16:29 34.37034 31.75867 41771 ft 503 kts 200°
2026-04-23 16:30 34.30325 31.73672 41763 ft 503 kts 200°
2026-04-23 16:30 34.23568 31.71461 41754 ft 503 kts 200°
2026-04-23 16:31 34.16796 31.69244 41747 ft 503 kts 200°
2026-04-23 16:31 34.10025 31.67027 41742 ft 503 kts 200°
2026-04-23 16:32 34.03279 31.64817 41740 ft 503 kts 200°
2026-04-23 16:32 33.96530 31.62634 41730 ft 504 kts 200°
2026-04-23 16:33 33.89704 31.60590 41726 ft 505 kts 198°
2026-04-23 16:33 33.82831 31.58757 41721 ft 507 kts 197°
2026-04-23 16:34 33.75898 31.57153 41714 ft 508 kts 195°
2026-04-23 16:34 33.68924 31.55795 41707 ft 510 kts 193°
2026-04-23 16:35 33.61878 31.54693 41702 ft 512 kts 192°
2026-04-23 16:35 33.54738 31.53864 41700 ft 514 kts 190°
2026-04-23 16:36 33.47617 31.53340 41690 ft 516 kts 188°
2026-04-23 16:36 33.40413 31.53134 41684 ft 518 kts 186°
2026-04-23 16:37 33.33193 31.53274 41676 ft 520 kts 183°
2026-04-23 16:37 33.25983 31.53787 41667 ft 523 kts 180°
2026-04-23 16:38 33.18738 31.54710 41666 ft 525 kts 178°
2026-04-23 16:38 33.11488 31.56175 41641 ft 533 kts 168°
2026-04-23 16:39 33.08072 31.57920 41685 ft 545 kts 153°
2026-04-23 16:39 33.04916 31.60481 41746 ft 550 kts 148°
2026-04-23 16:39 32.99243 31.66632 41778 ft 557 kts 140°
2026-04-23 16:40 32.93688 31.73087 41743 ft 557 kts 139°
2026-04-23 16:40 32.88157 31.79534 41718 ft 557 kts 140°
2026-04-23 16:41 32.82604 31.85999 41701 ft 557 kts 140°
2026-04-23 16:41 32.77089 31.92405 41695 ft 557 kts 140°
2026-04-23 16:42 32.71542 31.98837 41684 ft 557 kts 140°
2026-04-23 16:42 32.65968 32.05281 41678 ft 557 kts 141°
2026-04-23 16:43 32.60105 32.11091 41678 ft 550 kts 150°
2026-04-23 16:43 32.53862 32.16398 41673 ft 551 kts 149°
2026-04-23 16:44 32.47627 32.21673 41660 ft 551 kts 149°
2026-04-23 16:44 32.41390 32.26952 41652 ft 551 kts 149°
2026-04-23 16:45 32.35149 32.32226 41643 ft 551 kts 149°
2026-04-23 16:45 32.28918 32.37483 41632 ft 551 kts 149°
2026-04-23 16:46 32.22680 32.42738 41627 ft 551 kts 149°
2026-04-23 16:46 32.16416 32.48004 41618 ft 552 kts 149°
2026-04-23 16:47 32.10177 32.53240 41611 ft 552 kts 149°
2026-04-23 16:47 32.03901 32.58499 41599 ft 552 kts 150°
2026-04-23 16:48 31.97643 32.63734 41594 ft 552 kts 150°
2026-04-23 16:48 31.91376 32.68967 41582 ft 552 kts 150°
2026-04-23 16:49 31.85114 32.74187 41581 ft 552 kts 150°
2026-04-23 16:49 31.78855 32.79396 41577 ft 553 kts 150°
2026-04-23 16:50 31.73618 32.83747 41568 ft 553 kts 150°
2026-04-23 16:50 31.67332 32.88962 41561 ft 553 kts 150°
2026-04-23 16:51 31.61035 32.94179 41553 ft 553 kts 150°
2026-04-23 16:51 31.54789 32.99341 41549 ft 553 kts 150°
2026-04-23 16:52 31.48464 33.04564 41541 ft 553 kts 150°
2026-04-23 16:52 31.42175 33.09746 41533 ft 553 kts 150°
2026-04-23 16:53 31.35671 33.14387 41545 ft 544 kts 161°
2026-04-23 16:53 31.28693 33.17379 41553 ft 537 kts 168°
2026-04-23 16:54 31.21592 33.20163 41538 ft 537 kts 168°
2026-04-23 16:54 31.14469 33.22936 41522 ft 537 kts 168°
2026-04-23 16:55 31.07388 33.25688 41512 ft 537 kts 168°
2026-04-23 16:55 31.00284 33.28445 41506 ft 537 kts 168°
2026-04-23 16:56 30.93219 33.31183 41498 ft 538 kts 168°
2026-04-23 16:56 30.86141 33.33922 41488 ft 538 kts 168°
2026-04-23 16:57 30.79038 33.36666 41476 ft 538 kts 168°
2026-04-23 16:57 30.71923 33.39410 41467 ft 538 kts 169°
2026-04-23 16:58 30.64789 33.42158 41449 ft 538 kts 169°
2026-04-23 16:58 30.57669 33.44896 41439 ft 539 kts 169°
2026-04-23 16:59 30.50569 33.47621 41429 ft 539 kts 169°
2026-04-23 16:59 30.43444 33.50353 41417 ft 539 kts 169°
2026-04-23 17:00 30.36329 33.53075 41410 ft 540 kts 169°
2026-04-23 17:00 30.29176 33.55810 41398 ft 540 kts 169°
2026-04-23 17:01 30.22047 33.58529 41383 ft 540 kts 169°
2026-04-23 17:01 30.14899 33.61253 41362 ft 540 kts 169°
2026-04-23 17:02 30.07770 33.63964 41350 ft 540 kts 169°
2026-04-23 17:02 30.00622 33.66679 41344 ft 540 kts 169°
2026-04-23 17:03 29.93490 33.69384 41337 ft 539 kts 169°
2026-04-23 17:03 29.86361 33.72083 41322 ft 539 kts 169°
2026-04-23 17:04 29.79278 33.74762 41316 ft 539 kts 170°
2026-04-23 17:04 29.72155 33.77451 41310 ft 538 kts 170°
2026-04-23 17:05 29.65035 33.80135 41303 ft 538 kts 170°
2026-04-23 17:05 29.57896 33.82822 41295 ft 537 kts 170°
2026-04-23 17:06 29.50786 33.85495 41285 ft 537 kts 170°
2026-04-23 17:06 29.43692 33.88157 41289 ft 536 kts 170°
2026-04-23 17:07 29.36614 33.90809 41271 ft 536 kts 170°
2026-04-23 17:07 29.29536 33.93458 41265 ft 535 kts 170°
2026-04-23 17:08 29.22462 33.96101 41261 ft 535 kts 170°
2026-04-23 17:08 29.15386 33.98742 41261 ft 534 kts 171°
2026-04-23 17:09 29.08332 34.01370 41235 ft 535 kts 171°
2026-04-23 17:09 29.01233 34.04010 41217 ft 534 kts 171°
2026-04-23 17:10 28.94197 34.06625 41226 ft 534 kts 171°
2026-04-23 17:10 28.87149 34.09240 41233 ft 533 kts 171°
2026-04-23 17:11 28.80051 34.11868 41236 ft 534 kts 171°
2026-04-23 17:11 28.73041 34.14462 41222 ft 533 kts 171°
2026-04-23 17:12 28.65981 34.17069 41230 ft 532 kts 171°
2026-04-23 17:12 28.58957 34.19662 41226 ft 530 kts 171°
2026-04-23 17:13 28.51943 34.22243 41211 ft 531 kts 171°
2026-04-23 17:13 28.44925 34.24828 41204 ft 528 kts 171°
2026-04-23 17:14 28.37886 34.27409 41158 ft 530 kts 171°
2026-04-23 17:14 28.30922 34.29965 41122 ft 529 kts 171°
2026-04-23 17:15 28.23922 34.32529 41095 ft 529 kts 171°
2026-04-23 17:15 28.16911 34.35095 41051 ft 528 kts 171°
2026-04-23 17:16 28.09891 34.37658 41032 ft 528 kts 171°
2026-04-23 17:16 28.02919 34.40218 41011 ft 530 kts 168°
2026-04-23 17:17 27.99579 34.42143 41012 ft 550 kts 153°
2026-04-23 17:17 27.96611 34.44905 41059 ft 566 kts 142°
2026-04-23 17:17 27.91193 34.51429 41102 ft 566 kts 143°
2026-04-23 17:18 27.82931 34.61022 41066 ft 567 kts 142°
2026-04-23 17:19 27.77458 34.67385 41049 ft 566 kts 142°
2026-04-23 17:19 27.71951 34.73781 41033 ft 566 kts 142°
2026-04-23 17:20 27.66467 34.80138 41018 ft 565 kts 142°
2026-04-23 17:21 27.55489 34.92839 40999 ft 565 kts 142°
2026-04-23 17:21 27.47282 35.02309 40988 ft 564 kts 142°
2026-04-23 17:22 27.39041 35.11796 40980 ft 565 kts 143°
2026-04-23 17:23 27.30856 35.21197 40973 ft 564 kts 143°
2026-04-23 17:24 27.22565 35.30698 40967 ft 564 kts 143°
2026-04-23 17:24 27.14332 35.40112 40959 ft 563 kts 143°
2026-04-23 17:25 27.06099 35.49506 40942 ft 564 kts 143°
2026-04-23 17:26 26.95103 35.62018 40928 ft 564 kts 143°
2026-04-23 17:27 26.86836 35.71401 40918 ft 563 kts 143°
2026-04-23 17:27 26.81322 35.77647 40912 ft 563 kts 143°
2026-04-23 17:28 26.75816 35.83876 40903 ft 563 kts 143°
2026-04-23 17:28 26.70336 35.90065 40897 ft 563 kts 144°
2026-04-23 17:29 26.64783 35.96329 40886 ft 563 kts 144°
2026-04-23 17:30 26.57435 36.04603 40877 ft 562 kts 144°
2026-04-23 17:30 26.48261 36.14912 40861 ft 562 kts 144°
2026-04-23 17:31 26.42777 36.21060 40851 ft 562 kts 144°
2026-04-23 17:31 26.37284 36.27227 40865 ft 549 kts 145°
2026-04-23 17:32 26.31893 36.33232 40843 ft 545 kts 146°
2026-04-23 17:32 26.26647 36.39097 40830 ft 544 kts 146°
2026-04-23 17:33 26.21296 36.45066 40821 ft 545 kts 146°
2026-04-23 17:33 26.18753 36.48295 40811 ft 562 kts 134°
2026-04-23 17:33 26.16657 36.52027 40839 ft 574 kts 126°
2026-04-23 17:34 26.13402 36.60222 40871 ft 581 kts 123°
2026-04-23 17:35 26.08479 36.72542 40850 ft 582 kts 122°
2026-04-23 17:35 26.04093 36.83501 40833 ft 582 kts 122°
2026-04-23 17:36 26.00805 36.91700 40824 ft 582 kts 122°
2026-04-23 17:36 25.96951 37.01290 40816 ft 582 kts 122°
2026-04-23 17:37 25.94187 37.08154 40819 ft 583 kts 122°
2026-04-23 17:38 25.89213 37.20479 40845 ft 583 kts 122°
2026-04-23 17:38 25.85884 37.28706 40834 ft 583 kts 122°
2026-04-23 17:39 25.82560 37.36904 40834 ft 584 kts 122°
2026-04-23 17:39 25.79214 37.45139 40800 ft 584 kts 122°
2026-04-23 17:40 25.75888 37.53313 40792 ft 585 kts 122°
2026-04-23 17:40 25.72522 37.61562 40628 ft 585 kts 122°
2026-04-23 17:41 25.69162 37.69792 40616 ft 585 kts 122°
2026-04-23 17:41 25.64124 37.82092 40623 ft 586 kts 122°
2026-04-23 17:42 25.59057 37.94431 40629 ft 586 kts 122°
2026-04-23 17:43 25.55675 38.02649 40623 ft 586 kts 122°
2026-04-23 17:43 25.52287 38.10860 40598 ft 586 kts 122°
2026-04-23 17:44 25.48901 38.19049 40588 ft 586 kts 122°
2026-04-23 17:44 25.43809 38.31341 40571 ft 586 kts 122°
2026-04-23 17:45 25.38721 38.43587 40558 ft 586 kts 122°
2026-04-23 17:46 25.33597 38.55885 40535 ft 586 kts 123°
2026-04-23 17:46 25.30179 38.64073 40549 ft 587 kts 122°
2026-04-23 17:47 25.26752 38.72262 40531 ft 586 kts 123°
2026-04-23 17:48 25.21612 38.84518 40551 ft 587 kts 123°
2026-04-23 17:48 25.18174 38.92693 40566 ft 587 kts 123°
2026-04-23 17:49 25.14737 39.00855 40564 ft 587 kts 123°
2026-04-23 17:49 25.11336 39.08918 40563 ft 588 kts 123°
2026-04-23 17:50 25.07881 39.17089 40560 ft 588 kts 123°
2026-04-23 17:50 25.02682 39.29360 40548 ft 589 kts 123°
2026-04-23 17:51 24.99212 39.37531 40545 ft 589 kts 123°
2026-04-23 17:52 24.93990 39.49798 40513 ft 589 kts 123°
2026-04-23 17:52 24.87186 39.65744 40510 ft 589 kts 122°
2026-04-23 17:53 24.81930 39.77997 40541 ft 590 kts 122°
2026-04-23 17:54 24.78423 39.86162 40552 ft 590 kts 122°
2026-04-23 17:54 24.73149 39.98419 40536 ft 591 kts 122°
2026-04-23 17:55 24.67886 40.10614 40506 ft 591 kts 122°
2026-04-23 17:56 24.64359 40.18771 40482 ft 591 kts 122°
2026-04-23 17:56 24.59051 40.31013 40473 ft 592 kts 122°
2026-04-23 17:57 24.55506 40.39173 40492 ft 592 kts 122°
2026-04-23 17:58 24.50171 40.51424 40469 ft 593 kts 122°
2026-04-23 17:58 24.46671 40.59640 40455 ft 598 kts 117°
2026-04-23 17:59 24.44427 40.68525 40491 ft 610 kts 105°
2026-04-23 17:59 24.42618 40.77610 40484 ft 610 kts 107°
2026-04-23 18:00 24.40808 40.86724 40476 ft 612 kts 107°
2026-04-23 18:00 24.38989 40.95846 40464 ft 613 kts 107°
2026-04-23 18:01 24.37172 41.04926 40465 ft 613 kts 107°
2026-04-23 18:01 24.35340 41.14059 40456 ft 612 kts 107°
2026-04-23 18:02 24.33815 41.21633 40440 ft 612 kts 107°
2026-04-23 18:02 24.31669 41.32258 40420 ft 610 kts 107°
2026-04-23 18:03 24.29831 41.41331 40424 ft 608 kts 107°
2026-04-23 18:03 24.27992 41.50373 40412 ft 608 kts 107°
2026-04-23 18:04 24.26158 41.59363 40402 ft 608 kts 106°
2026-04-23 18:04 24.24310 41.68396 40392 ft 607 kts 107°
2026-04-23 18:05 24.22458 41.77422 40383 ft 606 kts 106°
2026-04-23 18:05 24.20603 41.86430 40377 ft 606 kts 107°
2026-04-23 18:06 24.18744 41.95428 40382 ft 605 kts 106°
2026-04-23 18:06 24.16882 42.04413 40372 ft 604 kts 106°
2026-04-23 18:07 24.15020 42.13374 40363 ft 603 kts 107°
2026-04-23 18:07 24.13152 42.22332 40371 ft 603 kts 106°
2026-04-23 18:08 24.11594 42.29782 40376 ft 603 kts 106°
2026-04-23 18:08 24.09414 42.40182 40386 ft 603 kts 106°
2026-04-23 18:09 24.07525 42.49154 40378 ft 603 kts 106°
2026-04-23 18:09 24.05647 42.58051 40376 ft 603 kts 106°
2026-04-23 18:10 24.03750 42.67011 40373 ft 602 kts 107°
2026-04-23 18:10 24.01859 42.75922 40373 ft 601 kts 107°
2026-04-23 18:11 23.99961 42.84827 40381 ft 600 kts 107°
2026-04-23 18:11 23.98063 42.93716 40387 ft 599 kts 107°
2026-04-23 18:12 23.96174 43.02532 40387 ft 599 kts 107°
2026-04-23 18:12 23.94273 43.11371 40382 ft 598 kts 107°
2026-04-23 18:13 23.92366 43.20227 40379 ft 599 kts 106°
2026-04-23 18:13 23.90449 43.29095 40380 ft 598 kts 106°
2026-04-23 18:14 23.88854 43.36451 40383 ft 596 kts 106°
2026-04-23 18:14 23.86618 43.46737 40382 ft 594 kts 106°
2026-04-23 18:15 23.84716 43.55458 40376 ft 592 kts 106°
2026-04-23 18:15 23.82801 43.64216 40367 ft 591 kts 107°
2026-04-23 18:16 23.80884 43.72955 40364 ft 591 kts 106°
2026-04-23 18:16 23.78975 43.81633 40364 ft 592 kts 107°
2026-04-23 18:17 23.76997 43.94963 40371 ft 598 kts 95°
2026-04-23 18:17 23.76390 44.04022 40379 ft 598 kts 95°
2026-04-23 18:18 23.75796 44.13079 40360 ft 599 kts 95°
2026-04-23 18:18 23.75193 44.22138 40361 ft 599 kts 95°
2026-04-23 18:19 23.74585 44.31206 40361 ft 598 kts 95°
2026-04-23 18:19 23.73972 44.40256 40373 ft 598 kts 95°
2026-04-23 18:20 23.73355 44.49292 40367 ft 597 kts 95°
2026-04-23 18:20 23.72733 44.58331 40366 ft 596 kts 95°
2026-04-23 18:21 23.72110 44.67286 40360 ft 595 kts 95°
2026-04-23 18:21 23.71480 44.76286 40354 ft 594 kts 95°
2026-04-23 18:22 23.70845 44.85273 40356 ft 593 kts 95°
2026-04-23 18:22 23.70206 44.94232 40353 ft 591 kts 95°
2026-04-23 18:23 23.69352 45.06115 40354 ft 590 kts 95°
2026-04-23 18:24 23.68378 45.19503 40363 ft 590 kts 95°
2026-04-23 18:25 23.67394 45.32878 40353 ft 589 kts 95°
2026-04-23 18:25 23.66731 45.41789 40359 ft 589 kts 95°
2026-04-23 18:26 23.66063 45.50709 40356 ft 590 kts 95°
2026-04-23 18:26 23.65390 45.59632 40352 ft 590 kts 95°
2026-04-23 18:27 23.64711 45.68556 40349 ft 590 kts 95°
2026-04-23 18:27 23.64028 45.77475 40347 ft 590 kts 95°
2026-04-23 18:28 23.63337 45.86403 40341 ft 590 kts 95°
2026-04-23 18:28 23.62644 45.95321 40351 ft 590 kts 95°
2026-04-23 18:29 23.61950 46.04175 40360 ft 590 kts 95°
2026-04-23 18:29 23.61245 46.13093 40365 ft 590 kts 95°
2026-04-23 18:30 23.60536 46.22014 40372 ft 591 kts 96°
2026-04-23 18:30 23.59820 46.30951 40383 ft 592 kts 95°
2026-04-23 18:31 23.59097 46.39910 40385 ft 593 kts 96°
2026-04-23 18:31 23.58369 46.48868 40385 ft 593 kts 96°
2026-04-23 18:32 23.57634 46.57840 40402 ft 594 kts 96°
2026-04-23 18:32 23.56894 46.66824 40407 ft 595 kts 96°
2026-04-23 18:33 23.56148 46.75804 40384 ft 595 kts 96°
2026-04-23 18:33 23.55401 46.84727 40394 ft 595 kts 96°
2026-04-23 18:34 23.54645 46.93715 40392 ft 596 kts 96°
2026-04-23 18:34 23.53883 47.02706 40377 ft 596 kts 96°
2026-04-23 18:35 23.53114 47.11712 40373 ft 597 kts 96°
2026-04-23 18:35 23.52339 47.20732 40380 ft 598 kts 96°
2026-04-23 18:36 23.51558 47.29750 40373 ft 598 kts 96°
2026-04-23 18:36 23.50772 47.38782 40368 ft 598 kts 96°
2026-04-23 18:37 23.49979 47.47814 40361 ft 599 kts 96°
2026-04-23 18:37 23.49182 47.56840 40354 ft 599 kts 96°
2026-04-23 18:38 23.48380 47.65867 40345 ft 599 kts 96°
2026-04-23 18:38 23.47572 47.74894 40338 ft 599 kts 96°
2026-04-23 18:39 23.46759 47.83917 40335 ft 599 kts 96°
2026-04-23 18:39 23.45942 47.92938 40329 ft 599 kts 96°
2026-04-23 18:40 23.45124 48.01901 40329 ft 598 kts 96°
2026-04-23 18:40 23.44296 48.10912 40321 ft 598 kts 96°
2026-04-23 18:41 23.43464 48.19924 40311 ft 597 kts 96°
2026-04-23 18:41 23.42627 48.28920 40305 ft 597 kts 96°
2026-04-23 18:42 23.41784 48.37923 40301 ft 597 kts 96°
2026-04-23 18:42 23.40938 48.46915 40295 ft 597 kts 96°
2026-04-23 18:43 23.40087 48.55890 40295 ft 596 kts 96°
2026-04-23 18:43 23.39232 48.64862 40287 ft 595 kts 96°
2026-04-23 18:44 23.38373 48.73827 40289 ft 595 kts 96°
2026-04-23 18:44 23.37508 48.82789 40284 ft 595 kts 96°
2026-04-23 18:45 23.36638 48.91749 40279 ft 595 kts 96°
2026-04-23 18:45 23.35768 49.00661 40279 ft 595 kts 96°
2026-04-23 18:46 23.34766 49.09592 40272 ft 595 kts 100°
2026-04-23 18:46 23.33486 49.18498 40277 ft 595 kts 99°
2026-04-23 18:47 23.32202 49.27393 40275 ft 595 kts 99°
2026-04-23 18:47 23.30914 49.36302 40272 ft 595 kts 99°
2026-04-23 18:48 23.29627 49.45189 40272 ft 595 kts 99°
2026-04-23 18:48 23.28333 49.54083 40263 ft 595 kts 99°
2026-04-23 18:49 23.27034 49.62970 40257 ft 595 kts 99°
2026-04-23 18:49 23.25732 49.71845 40255 ft 594 kts 99°
2026-04-23 18:50 23.24645 49.79234 40253 ft 594 kts 99°
2026-04-23 18:50 23.23120 49.89549 40246 ft 594 kts 99°
2026-04-23 18:51 23.21801 49.98426 40243 ft 594 kts 99°
2026-04-23 18:51 23.20480 50.07296 40235 ft 594 kts 99°
2026-04-23 18:52 23.19153 50.16161 40230 ft 594 kts 99°
2026-04-23 18:52 23.17822 50.25023 40227 ft 594 kts 100°
2026-04-23 18:53 23.17202 50.33959 40223 ft 593 kts 81°
2026-04-23 18:53 23.18108 50.38244 40272 ft 588 kts 66°
2026-04-23 18:53 23.19859 50.42216 40302 ft 579 kts 52°
2026-04-23 18:54 23.24745 50.49101 40320 ft 573 kts 45°
2026-04-23 18:54 23.29867 50.55758 40293 ft 573 kts 45°
2026-04-23 18:55 23.34994 50.62448 40273 ft 574 kts 45°
2026-04-23 18:55 23.40064 50.69172 40271 ft 575 kts 46°
2026-04-23 18:56 23.44237 50.74805 40266 ft 575 kts 46°
2026-04-23 18:56 23.50016 50.82761 40252 ft 576 kts 47°
2026-04-23 18:57 23.54671 50.89878 40239 ft 584 kts 60°
2026-04-23 18:57 23.56140 50.94039 40285 ft 590 kts 71°
2026-04-23 18:57 23.57193 50.98373 40303 ft 591 kts 74°
2026-04-23 18:58 23.58555 51.07225 40294 ft 594 kts 82°
2026-04-23 18:58 23.59550 51.16167 40281 ft 594 kts 82°
2026-04-23 18:59 23.60517 51.25060 40272 ft 594 kts 82°
2026-04-23 18:59 23.61486 51.34009 40245 ft 594 kts 82°
2026-04-23 19:00 23.62451 51.42956 40243 ft 594 kts 82°
2026-04-23 19:00 23.63410 51.51910 40244 ft 594 kts 82°
2026-04-23 19:01 23.64365 51.60866 40238 ft 594 kts 82°
2026-04-23 19:01 23.65314 51.69820 40239 ft 594 kts 82°
2026-04-23 19:02 23.66106 51.77322 40232 ft 595 kts 82°
2026-04-23 19:02 23.67197 51.87735 40234 ft 595 kts 82°
2026-04-23 19:03 23.68132 51.96694 40243 ft 594 kts 82°
2026-04-23 19:03 23.69060 52.05661 40244 ft 595 kts 82°
2026-04-23 19:04 23.69985 52.14627 40239 ft 595 kts 82°
2026-04-23 19:04 23.70905 52.23611 40238 ft 595 kts 82°
2026-04-23 19:05 23.71821 52.32597 40240 ft 596 kts 82°
2026-04-23 19:05 23.72731 52.41585 40241 ft 596 kts 82°
2026-04-23 19:06 23.73631 52.50524 40238 ft 596 kts 82°
2026-04-23 19:06 23.74532 52.59516 40237 ft 596 kts 82°
2026-04-23 19:07 23.75427 52.68516 40266 ft 595 kts 82°
2026-04-23 19:07 23.75873 52.73015 40031 ft 598 kts 82°
2026-04-23 19:07 23.76321 52.77547 39750 ft 600 kts 82°
2026-04-23 19:07 23.76766 52.82078 39475 ft 600 kts 82°
2026-04-23 19:08 23.77209 52.86583 39196 ft 592 kts 82°
2026-04-23 19:08 23.77642 52.91014 38913 ft 582 kts 82°
2026-04-23 19:08 23.77925 52.93904 38729 ft 575 kts 82°
2026-04-23 19:08 23.78346 52.98230 38439 ft 570 kts 82°
2026-04-23 19:09 23.78764 53.02526 38125 ft 567 kts 82°
2026-04-23 19:09 23.79311 53.08181 37697 ft 563 kts 82°
2026-04-23 19:09 23.79719 53.12412 37388 ft 558 kts 82°
2026-04-23 19:09 23.79992 53.15253 37184 ft 554 kts 82°
2026-04-23 19:10 23.80392 53.19419 36873 ft 550 kts 82°
2026-04-23 19:10 23.80788 53.23552 36572 ft 545 kts 82°
2026-04-23 19:10 23.81180 53.27652 36268 ft 541 kts 82°
2026-04-23 19:10 23.81561 53.31670 35979 ft 537 kts 82°
2026-04-23 19:11 23.81946 53.35723 35687 ft 534 kts 82°
2026-04-23 19:11 23.82327 53.39739 35400 ft 529 kts 82°
2026-04-23 19:11 23.82703 53.43725 35117 ft 525 kts 82°
2026-04-23 19:11 23.83074 53.47671 34831 ft 521 kts 82°
2026-04-23 19:12 23.83443 53.51594 34551 ft 517 kts 83°
2026-04-23 19:12 23.83806 53.55478 34276 ft 513 kts 83°
2026-04-23 19:12 23.84166 53.59336 33998 ft 509 kts 83°
2026-04-23 19:12 23.84523 53.63163 33697 ft 504 kts 83°
2026-04-23 19:13 23.84874 53.66962 33387 ft 501 kts 83°
2026-04-23 19:13 23.85224 53.70732 33092 ft 498 kts 83°
2026-04-23 19:13 23.85571 53.74487 32769 ft 496 kts 83°
2026-04-23 19:13 23.85916 53.78227 32468 ft 494 kts 83°
2026-04-23 19:14 23.86258 53.81958 32159 ft 491 kts 83°
2026-04-23 19:14 23.86598 53.85661 31862 ft 488 kts 83°
2026-04-23 19:14 23.86934 53.89347 31555 ft 485 kts 83°
2026-04-23 19:14 23.87268 53.93002 31275 ft 483 kts 83°
2026-04-23 19:15 23.87599 53.96648 30997 ft 481 kts 83°
2026-04-23 19:15 23.87924 54.00230 30705 ft 480 kts 83°
2026-04-23 19:15 23.88250 54.03842 30590 ft 479 kts 83°
2026-04-23 19:15 23.88588 54.07565 30507 ft 501 kts 83°
2026-04-23 19:16 23.88927 54.11357 30392 ft 502 kts 83°
2026-04-23 19:16 23.89278 54.15263 30302 ft 532 kts 83°
2026-04-23 19:16 23.89649 54.19417 30238 ft 565 kts 83°
2026-04-23 19:17 23.90426 54.28165 29888 ft 579 kts 83°
2026-04-23 19:17 23.90813 54.32525 29665 ft 573 kts 83°
2026-04-23 19:17 23.91196 54.36850 29437 ft 569 kts 83°
2026-04-23 19:17 23.91573 54.41154 29216 ft 568 kts 83°
2026-04-23 19:18 23.91950 54.45440 29000 ft 566 kts 83°
2026-04-23 19:18 23.92324 54.49714 28779 ft 563 kts 83°
2026-04-23 19:18 23.92694 54.53968 28562 ft 561 kts 83°
2026-04-23 19:18 23.93063 54.58214 28353 ft 559 kts 83°
2026-04-23 19:19 23.93790 54.66642 27934 ft 555 kts 84°
2026-04-23 19:19 23.94153 54.70830 27728 ft 553 kts 84°
2026-04-23 19:20 23.94865 54.79167 27323 ft 549 kts 84°
2026-04-23 19:20 23.95220 54.83312 27122 ft 547 kts 84°
2026-04-23 19:20 23.95569 54.87451 26927 ft 545 kts 84°
2026-04-23 19:20 23.95919 54.91569 26728 ft 543 kts 84°
2026-04-23 19:21 23.96266 54.95669 26525 ft 540 kts 84°
2026-04-23 19:21 23.96946 55.03775 26152 ft 537 kts 84°
2026-04-23 19:21 23.97285 55.07834 25954 ft 535 kts 84°
2026-04-23 19:22 23.97621 55.11875 25766 ft 533 kts 84°
2026-04-23 19:22 23.97958 55.15905 25573 ft 531 kts 84°
2026-04-23 19:22 23.98620 55.23926 25202 ft 528 kts 84°
2026-04-23 19:23 23.98947 55.27909 25019 ft 525 kts 84°
2026-04-23 19:23 23.99272 55.31884 24838 ft 523 kts 84°
2026-04-23 19:23 23.99597 55.35838 24655 ft 522 kts 84°
2026-04-23 19:24 24.00238 55.43727 24295 ft 518 kts 85°
2026-04-23 19:24 24.00555 55.47641 24122 ft 516 kts 85°
2026-04-23 19:24 24.02390 55.55130 23745 ft 511 kts 59°
2026-04-23 19:25 24.07174 55.60697 23418 ft 502 kts 36°
2026-04-23 19:25 24.12709 55.65340 23019 ft 499 kts 34°
2026-04-23 19:26 24.18092 55.70074 22593 ft 497 kts 41°
2026-04-23 19:26 24.20638 55.72626 22396 ft 495 kts 39°
2026-04-23 19:27 24.25730 55.77686 21990 ft 492 kts 40°
2026-04-23 19:27 24.32925 55.84848 21295 ft 418 kts 39°
2026-04-23 19:28 24.37065 55.88966 20884 ft 394 kts 39°
2026-04-23 19:28 24.41037 55.92930 20511 ft 389 kts 39°
2026-04-23 19:29 24.43032 55.94920 20326 ft 384 kts 39°
2026-04-23 19:29 24.46887 55.98771 19924 ft 367 kts 39°
2026-04-23 19:30 24.50670 56.02549 19576 ft 369 kts 39°
2026-04-23 19:30 24.52568 56.04448 19391 ft 370 kts 39°
2026-04-23 19:30 24.56353 56.08237 18961 ft 366 kts 39°
2026-04-23 19:31 24.58293 56.09998 18699 ft 357 kts 28°
2026-04-23 19:31 24.60478 56.11205 18452 ft 347 kts 19°
2026-04-23 19:31 24.62718 56.12117 18212 ft 341 kts 14°
2026-04-23 19:31 24.64897 56.13120 17897 ft 342 kts 30°
2026-04-23 19:32 24.66676 56.14812 17637 ft 345 kts 42°
2026-04-23 19:32 24.68599 56.16340 17362 ft 340 kts 20°
2026-04-23 19:32 24.70859 56.16912 17098 ft 330 kts 356°
2026-04-23 19:32 24.73071 56.16468 16845 ft 321 kts 333°
2026-04-23 19:33 24.74907 56.15148 16581 ft 313 kts 311°
2026-04-23 19:33 24.76316 56.13330 16311 ft 312 kts 304°
2026-04-23 19:33 24.78876 56.09504 15736 ft 308 kts 302°
2026-04-23 19:34 24.80078 56.07552 15462 ft 307 kts 294°
2026-04-23 19:34 24.80705 56.05338 15230 ft 303 kts 283°
2026-04-23 19:34 24.82993 56.01395 14714 ft 309 kts 306°
2026-04-23 19:35 24.84376 55.99585 14456 ft 309 kts 307°
2026-04-23 19:35 24.85778 55.97801 14196 ft 308 kts 308°
2026-04-23 19:35 24.87192 55.96027 13936 ft 307 kts 308°
2026-04-23 19:35 24.88608 55.94269 13670 ft 307 kts 308°
2026-04-23 19:36 24.90032 55.92515 13408 ft 306 kts 308°
2026-04-23 19:36 24.91446 55.90773 13125 ft 305 kts 308°
2026-04-23 19:36 24.92857 55.89023 12849 ft 306 kts 308°
2026-04-23 19:36 24.94267 55.87271 12568 ft 304 kts 308°
2026-04-23 19:37 24.95655 55.85523 12291 ft 302 kts 307°
2026-04-23 19:37 24.96992 55.83741 12018 ft 301 kts 306°
2026-04-23 19:37 24.98289 55.81968 11753 ft 301 kts 306°
2026-04-23 19:37 24.99590 55.80166 11481 ft 300 kts 305°
2026-04-23 19:38 25.00879 55.78366 11206 ft 299 kts 305°
2026-04-23 19:38 25.01882 55.76958 10520 ft 313 kts 305°
2026-04-23 19:38 25.03251 55.75012 9611 ft 330 kts 305°
2026-04-23 19:38 25.04678 55.72957 8699 ft 342 kts 305°
2026-04-23 19:39 25.06096 55.70887 7854 ft 333 kts 304°
2026-04-23 19:39 25.07363 55.68910 7098 ft 305 kts 303°
2026-04-23 19:39 25.08567 55.66948 6456 ft 313 kts 302°
2026-04-23 19:39 25.09695 55.64885 5928 ft 308 kts 298°
2026-04-23 19:40 25.10694 55.62895 5406 ft 288 kts 298°
2026-04-23 19:40 25.11628 55.60977 4811 ft 279 kts 297°
2026-04-23 19:40 25.12514 55.59109 4238 ft 272 kts 297°
2026-04-23 19:40 25.13364 55.57286 3914 ft 265 kts 299°
2026-04-23 19:41 25.14255 55.55537 3579 ft 256 kts 304°
2026-04-23 19:41 25.15280 55.53976 3232 ft 247 kts 309°
2026-04-23 19:41 25.16319 55.52495 2880 ft 241 kts 309°
2026-04-23 19:41 25.17259 55.50981 2546 ft 238 kts 304°
2026-04-23 19:42 25.18124 55.49447 2255 ft 225 kts 301°
2026-04-23 19:42 25.18797 55.48068 2072 ft 191 kts 302°
2026-04-23 19:42 25.19455 55.46829 1930 ft 185 kts 306°
2026-04-23 19:42 25.20135 55.45621 1777 ft 182 kts 305°
2026-04-23 19:43 25.20772 55.44468 1463 ft 172 kts 307°
2026-04-23 19:43 25.21408 55.43360 1175 ft 169 kts 306°
2026-04-23 19:43 25.22049 55.42270 870 ft 168 kts 305°
2026-04-23 19:43 25.22625 55.41228 551 ft 160 kts 303°
2026-04-23 19:44 25.23200 55.40189 314 ft 156 kts 302°
2026-04-23 19:44 25.23765 55.39175 125 ft 155 kts 302°
2026-04-23 19:44 25.24322 55.38183 57 ft 144 kts 302°
2026-04-23 19:44 25.24785 55.37341 43 ft 101 kts 301°
2026-04-23 19:45 25.25036 55.36890 36 ft 52 kts 301°
2026-04-23 19:45 25.25181 55.36629 30 ft 24 kts 302°
2026-04-23 19:45 25.25198 55.36506 30 ft 14 kts 239°
2026-04-23 19:45 25.25128 55.36451 27 ft 0 kts 212°
2026-04-23 19:46 25.25086 55.36422 29 ft 11 kts 212°
2026-04-23 19:46 25.25035 55.36391 31 ft 7 kts 195°
2026-04-23 19:47 25.25007 55.36380 31 ft 7 kts 204°
2026-04-23 19:47 25.24922 55.36324 31 ft 13 kts 212°
2026-04-23 19:47 25.24883 55.36297 31 ft 0 kts 211°